FLOCK 3P-43

Last updated on Feb. 14, 2018, 4:20 p.m. UTC

1 42007U 17008BM  18044.88645530  .00000769  00000-0  34947-4 0  9998
2 42007  97.4665 110.4802 0009606  88.5277 271.7060 15.23739593 55332
UTC
Height (km)
Latitude
Longitude
Inclination
Orbital Period
UTC large
Height (km)
Speed (km/s)
/
Latitude / Longitude
Inclination (degrees)
Orbital Period (minutes)
Azimuth
Elevation
Range (km)
Doppler Factor
iOS Compass Heading
iOS Angle